Location: Bednik
(45.3500°N, 16.3833°E)
Time: 16:34:12
(UTC+00:00)

Cosmos 2208 Rocket - Pass Details

Date: 08 August 2020
Orbit: 755 x 805 km, 74.0° (Epoch: 18 September)

Event Time Altitude Azimuth Distance (km) Brightness Sun altitude
Rises 21:47:37 0° 337° (NNW) 3,267 8.6 -26.7°
Reaches altitude 10° 21:50:01 10° 337° (NNW) 2,327 7.5 -26.8°
Enters shadow 21:55:08 80° 284° (WNW) 783 3.9 -27.1°
